Flag for Japan Weather past 2 weeks in Hiroshima, Japan

Now
75 °F

Partly sunny.


Feels Like: 76 °F
Forecast: 64 / 75 °F
Wind: 5 mph from Northeast

Location: Iwakuni Marine Corps Air Station

Current Time: Jul 3, 2015 at 9:17:39 AM

Latest Report: Jul 3, 2015 at 8:55 AM


Visibility: 6 mi

Pressure: 29.70 "Hg

Humidity: 79%

Dew point: 68 °F

Location of HiroshimaLocation

Historic Weather in Hiroshima — Graph

°F

Hiroshima temperature yesterday

Maximum temperature yesterday: 79 °F (at 12:55 PM)
Minimum temperature yesterday: 69 °F (at 5:55 AM)
Average temperature yesterday: 75 °F

Past Weeks' High & Low Weather Summary

 TemperatureHumidityPressure
High86 °F (Jun 24, 2:55 PM)100% (Jun 26, 2:55 AM)29.90 "Hg (Jun 26, 2:55 AM)
Low64 °F (Jun 28, 4:55 AM)53% (Jun 28, 3:55 PM)29.24 "Hg (Jul 1, 3:55 AM)
Average74 °F81%29.69 "Hg
* Reported Jun 18 7:55 AM — Jul 3 7:55 AM, Hiroshima, Weather by CustomWeather, © 2015

Note: Actual official high and low records may vary slightly from our data, if they occured in-between our weather recording intervals... More about our weather records

Advertising

Hiroshima weather history for previous 24 hours

 ConditionsComfort  
Time TempWeatherWind HumidityBarometerVisibility
7:55 AM
Fri, Jul 3
73 °FPartly sunny.No wind81%29.70 "Hg6 mi
6:55 AM70 °FPartly sunny.3 mph84%29.70 "HgN/A
5:55 AM67 °FPartly sunny.5 mph93%29.68 "HgN/A
2:55 AM68 °FPassing clouds.7 mph87%29.66 "HgN/A
1:55 AM66 °FPartly cloudy.5 mph87%29.66 "HgN/A
12:55 AM71 °FPassing clouds.No wind81%29.66 "HgN/A
11:55 PM
Thu, Jul 2
72 °FPassing clouds.5 mph81%29.67 "HgN/A
10:55 PM72 °FPassing clouds.6 mph83%29.66 "HgN/A
9:55 PM73 °FPassing clouds.3 mph79%29.66 "HgN/A
8:55 PM73 °FPartly cloudy.5 mph79%29.65 "HgN/A
7:55 PM74 °FPartly cloudy.3 mph78%29.65 "HgN/A
6:55 PM75 °FBroken clouds.13 mph76%29.63 "HgN/A
5:55 PM78 °FPartly sunny.7 mph66%29.62 "Hg7 mi
4:55 PM78 °FPartly sunny.6 mph66%29.60 "HgN/A
3:55 PM79 °FPartly sunny.9 mph67%29.61 "HgN/A
2:55 PM79 °FPartly sunny.8 mph67%29.60 "HgN/A
1:55 PM79 °FPartly sunny.10 mph67%29.62 "HgN/A
12:55 PM79 °FPartly sunny.12 mph69%29.63 "HgN/A
11:55 AM78 °FPartly sunny.13 mph74%29.62 "HgN/A
10:55 AM77 °FPartly sunny.10 mph74%29.62 "HgN/A
9:55 AM76 °FPartly sunny.12 mph74%29.62 "HgN/A
Weather by CustomWeather, © 2015

See weather overviewHow to use our weather pages